HAZ4818 ZBSJ-ZYTX

Flight info

Callsign HAZ4818
Flight time 1h 24m
Altitude 35100
Route AREKU W640 BELAX G212 VYK W34 OTBUL W35 CHG A575 OMDUS
Aircraft A320/M-SDE3FGHIRWY/LB1

Departure

Time 2026-05-05 20:13
Airport Shijiazhuang Zhengding International Airport (ZBSJ)

Arrival

Time 2026-05-05 21:37
Airport Shenyang Taoxian International Airport (ZYTX)
Time Latitude Longitude Altitude Speed Heading
2026-05-05 19:55 38.28676 114.68742 241 ft 0 kts 248°
2026-05-05 20:05 38.28679 114.68749 241 ft 2 kts 248°
2026-05-05 20:05 38.28684 114.68767 241 ft 2 kts 248°
2026-05-05 20:05 38.28690 114.68784 241 ft 2 kts 248°
2026-05-05 20:06 38.28696 114.68802 241 ft 2 kts 248°
2026-05-05 20:06 38.28701 114.68820 241 ft 2 kts 262°
2026-05-05 20:06 38.28699 114.68838 241 ft 2 kts 294°
2026-05-05 20:06 38.28692 114.68853 241 ft 0 kts 321°
2026-05-05 20:07 38.28686 114.68858 241 ft 1 kts 327°
2026-05-05 20:07 38.28685 114.68859 241 ft 0 kts 326°
2026-05-05 20:09 38.28685 114.68858 241 ft 0 kts 326°
2026-05-05 20:09 38.28693 114.68851 241 ft 3 kts 324°
2026-05-05 20:09 38.28718 114.68829 241 ft 5 kts 326°
2026-05-05 20:09 38.28753 114.68800 241 ft 6 kts 328°
2026-05-05 20:10 38.28801 114.68763 241 ft 7 kts 328°
2026-05-05 20:10 38.28848 114.68733 241 ft 7 kts 358°
2026-05-05 20:10 38.28899 114.68761 242 ft 8 kts 17°
2026-05-05 20:10 38.28961 114.68739 243 ft 10 kts 329°
2026-05-05 20:11 38.29029 114.68687 244 ft 12 kts 330°
2026-05-05 20:11 38.29105 114.68626 244 ft 14 kts 327°
2026-05-05 20:11 38.29180 114.68565 245 ft 9 kts 327°
2026-05-05 20:11 38.29236 114.68521 245 ft 9 kts 336°
2026-05-05 20:12 38.29291 114.68544 246 ft 9 kts 52°
2026-05-05 20:12 38.29329 114.68626 245 ft 11 kts 70°
2026-05-05 20:12 38.29300 114.68718 244 ft 13 kts 146°
2026-05-05 20:12 38.29218 114.68786 244 ft 18 kts 147°
2026-05-05 20:13 38.28894 114.69054 241 ft 91 kts 147°
2026-05-05 20:13 38.28176 114.69633 239 ft 151 kts 148°
2026-05-05 20:13 38.27260 114.70431 673 ft 162 kts 147°
2026-05-05 20:13 38.26361 114.71224 1347 ft 161 kts 149°
2026-05-05 20:14 38.25446 114.72028 2015 ft 163 kts 148°
2026-05-05 20:14 38.24717 114.73197 2385 ft 185 kts 108°
2026-05-05 20:14 38.24874 114.74887 2706 ft 206 kts 62°
2026-05-05 20:14 38.25901 114.76222 3071 ft 222 kts 36°
2026-05-05 20:15 38.27168 114.77460 3376 ft 244 kts 38°
2026-05-05 20:15 38.28543 114.78874 3768 ft 263 kts 39°
2026-05-05 20:15 38.29995 114.80423 4223 ft 281 kts 40°
2026-05-05 20:15 38.31617 114.81792 4864 ft 287 kts 17°
2026-05-05 20:16 38.33567 114.82022 5630 ft 283 kts 346°
2026-05-05 20:16 38.35346 114.81078 6426 ft 279 kts 324°
2026-05-05 20:16 38.36989 114.79740 7195 ft 282 kts 323°
2026-05-05 20:16 38.38636 114.78409 7949 ft 286 kts 324°
2026-05-05 20:17 38.40328 114.77065 8705 ft 289 kts 325°
2026-05-05 20:17 38.42048 114.75724 9431 ft 292 kts 325°
2026-05-05 20:17 38.43785 114.74379 10185 ft 294 kts 326°
2026-05-05 20:17 38.45597 114.73141 10718 ft 308 kts 337°
2026-05-05 20:18 38.47801 114.72674 11008 ft 333 kts 359°
2026-05-05 20:18 38.50117 114.73296 11290 ft 356 kts 21°
2026-05-05 20:18 38.52191 114.75089 11709 ft 372 kts 44°
2026-05-05 20:18 38.53628 114.77862 12383 ft 379 kts 63°
2026-05-05 20:19 38.54697 114.80912 13127 ft 381 kts 64°
2026-05-05 20:19 38.55767 114.84002 13802 ft 383 kts 64°
2026-05-05 20:19 38.56857 114.87090 14454 ft 386 kts 63°
2026-05-05 20:19 38.57977 114.90220 15079 ft 389 kts 63°
2026-05-05 20:20 38.59112 114.93385 15661 ft 393 kts 63°
2026-05-05 20:20 38.60255 114.96567 16228 ft 397 kts 63°
2026-05-05 20:20 38.61407 114.99778 16804 ft 401 kts 63°
2026-05-05 20:20 38.62480 115.03085 17340 ft 406 kts 67°
2026-05-05 20:21 38.63375 115.06525 17868 ft 411 kts 71°
2026-05-05 20:21 38.64088 115.10029 18380 ft 414 kts 74°
2026-05-05 20:21 38.64765 115.13627 18865 ft 418 kts 74°
2026-05-05 20:21 38.65432 115.17231 19340 ft 421 kts 75°
2026-05-05 20:22 38.66112 115.20902 19772 ft 426 kts 74°
2026-05-05 20:22 38.66800 115.24601 20221 ft 429 kts 74°
2026-05-05 20:22 38.67490 115.28295 20668 ft 433 kts 74°
2026-05-05 20:22 38.68193 115.32076 21100 ft 436 kts 74°
2026-05-05 20:23 38.68898 115.35854 21504 ft 440 kts 74°
2026-05-05 20:23 38.69607 115.39667 21910 ft 444 kts 74°
2026-05-05 20:23 38.70318 115.43494 22321 ft 447 kts 74°
2026-05-05 20:23 38.71035 115.47362 22736 ft 450 kts 73°
2026-05-05 20:24 38.71920 115.51204 23108 ft 451 kts 67°
2026-05-05 20:24 38.73110 115.54871 23479 ft 452 kts 60°
2026-05-05 20:24 38.74604 115.58413 23876 ft 453 kts 56°
2026-05-05 20:24 38.76214 115.61910 24251 ft 456 kts 55°
2026-05-05 20:25 38.77411 115.64467 24514 ft 458 kts 55°
2026-05-05 20:25 38.78849 115.67545 24825 ft 460 kts 55°
2026-05-05 20:25 38.79259 115.68425 24917 ft 461 kts 55°
2026-05-05 20:25 38.80916 115.71994 25274 ft 463 kts 55°
2026-05-05 20:26 38.82545 115.75520 25615 ft 466 kts 55°
2026-05-05 20:26 38.84197 115.79115 25941 ft 468 kts 55°
2026-05-05 20:26 38.85852 115.82725 26249 ft 471 kts 55°
2026-05-05 20:26 38.87511 115.86347 26581 ft 473 kts 55°
2026-05-05 20:27 38.89162 115.89958 26900 ft 475 kts 54°
2026-05-05 20:27 38.90829 115.93612 27192 ft 478 kts 55°
2026-05-05 20:27 38.92527 115.97336 27465 ft 480 kts 54°
2026-05-05 20:27 38.94200 116.01009 27765 ft 482 kts 54°
2026-05-05 20:28 38.95887 116.04724 28045 ft 484 kts 54°
2026-05-05 20:28 38.97585 116.08470 28344 ft 485 kts 54°
2026-05-05 20:28 38.99283 116.12213 28592 ft 487 kts 54°
2026-05-05 20:28 39.00974 116.15942 28864 ft 489 kts 54°
2026-05-05 20:29 39.02687 116.19726 29104 ft 490 kts 54°
2026-05-05 20:29 39.04395 116.23502 29301 ft 493 kts 54°
2026-05-05 20:29 39.06120 116.27325 29525 ft 494 kts 53°
2026-05-05 20:29 39.07844 116.31155 29799 ft 495 kts 53°
2026-05-05 20:30 39.09558 116.34971 30100 ft 494 kts 53°
2026-05-05 20:30 39.11282 116.38806 30403 ft 494 kts 53°
2026-05-05 20:30 39.12982 116.42593 30700 ft 493 kts 53°
2026-05-05 20:30 39.14702 116.46439 31029 ft 493 kts 54°
2026-05-05 20:31 39.16189 116.50402 31255 ft 501 kts 62°
2026-05-05 20:31 39.17291 116.54678 31536 ft 508 kts 70°
2026-05-05 20:31 39.17960 116.59168 31780 ft 514 kts 78°
2026-05-05 20:31 39.18156 116.63747 32052 ft 519 kts 87°
2026-05-05 20:32 39.17878 116.68351 32337 ft 521 kts 96°
2026-05-05 20:32 39.17218 116.72946 32586 ft 523 kts 100°
2026-05-05 20:32 39.16447 116.77565 32810 ft 524 kts 100°
2026-05-05 20:32 39.15680 116.82095 33022 ft 525 kts 100°
2026-05-05 20:33 39.14923 116.86689 33189 ft 527 kts 99°
2026-05-05 20:33 39.14185 116.91302 33386 ft 527 kts 99°
2026-05-05 20:33 39.13456 116.95924 33594 ft 528 kts 99°
2026-05-05 20:33 39.12743 117.00548 33820 ft 528 kts 98°
2026-05-05 20:34 39.12111 117.05180 33997 ft 529 kts 97°
2026-05-05 20:34 39.11508 117.09837 34173 ft 530 kts 96°
2026-05-05 20:34 39.10912 117.14487 34432 ft 529 kts 96°
2026-05-05 20:34 39.10312 117.19141 34642 ft 530 kts 96°
2026-05-05 20:35 39.09690 117.23841 34770 ft 532 kts 96°
2026-05-05 20:35 39.08452 117.33167 34780 ft 533 kts 95°
2026-05-05 20:36 39.07770 117.42607 34787 ft 526 kts 87°
2026-05-05 20:36 39.07669 117.51909 34789 ft 525 kts 85°
2026-05-05 20:37 39.07597 117.61300 34785 ft 525 kts 85°
2026-05-05 20:37 39.07500 117.70672 34782 ft 525 kts 86°
2026-05-05 20:38 39.07375 117.80006 34791 ft 523 kts 86°
2026-05-05 20:38 39.07244 117.89301 34792 ft 523 kts 86°
2026-05-05 20:39 39.07092 117.98620 34795 ft 525 kts 88°
2026-05-05 20:39 39.06346 118.07954 34798 ft 528 kts 96°
2026-05-05 20:40 39.04903 118.17211 34798 ft 528 kts 99°
2026-05-05 20:40 39.03397 118.26407 34802 ft 529 kts 98°
2026-05-05 20:41 39.01955 118.35609 34797 ft 527 kts 94°
2026-05-05 20:41 39.01917 118.40237 34785 ft 513 kts 75°
2026-05-05 20:41 39.02888 118.44574 34798 ft 496 kts 56°
2026-05-05 20:41 39.04676 118.48226 34806 ft 476 kts 40°
2026-05-05 20:42 39.07053 118.51032 34806 ft 457 kts 24°
2026-05-05 20:42 39.09769 118.52895 34810 ft 440 kts 11°
2026-05-05 20:42 39.12700 118.53946 34815 ft 430 kts
2026-05-05 20:43 39.18511 118.55634 34812 ft 430 kts
2026-05-05 20:43 39.24340 118.57361 34813 ft 431 kts
2026-05-05 20:44 39.30197 118.59135 34816 ft 431 kts
2026-05-05 20:44 39.35994 118.60902 34816 ft 430 kts
2026-05-05 20:45 39.44742 118.63586 34810 ft 429 kts
2026-05-05 20:45 39.50577 118.65378 34805 ft 431 kts
2026-05-05 20:46 39.56366 118.67162 34808 ft 431 kts
2026-05-05 20:46 39.62195 118.68961 34809 ft 430 kts
2026-05-05 20:47 39.67987 118.70944 34808 ft 436 kts
2026-05-05 20:47 39.73701 118.73804 34807 ft 445 kts 14°
2026-05-05 20:48 39.79227 118.77610 34807 ft 455 kts 21°
2026-05-05 20:48 39.84496 118.82278 34810 ft 462 kts 25°
2026-05-05 20:49 39.89682 118.87172 34811 ft 462 kts 25°
2026-05-05 20:49 39.94857 118.92061 34809 ft 460 kts 25°
2026-05-05 20:50 39.99163 118.96127 34818 ft 461 kts 25°
2026-05-05 20:50 40.05216 119.01844 34818 ft 462 kts 25°
2026-05-05 20:51 40.10388 119.06743 34825 ft 460 kts 25°
2026-05-05 20:51 40.15568 119.11660 34835 ft 461 kts 25°
2026-05-05 20:52 40.20747 119.16583 34841 ft 461 kts 25°
2026-05-05 20:52 40.25940 119.21458 34854 ft 460 kts 24°
2026-05-05 20:53 40.31130 119.26276 34859 ft 458 kts 24°
2026-05-05 20:53 40.36316 119.31109 34872 ft 459 kts 24°
2026-05-05 20:54 40.41513 119.35970 34871 ft 459 kts 24°
2026-05-05 20:54 40.46706 119.40836 34872 ft 461 kts 24°
2026-05-05 20:55 40.51886 119.45702 34881 ft 459 kts 24°
2026-05-05 20:55 40.57081 119.50593 34883 ft 458 kts 24°
2026-05-05 20:56 40.62250 119.55469 34877 ft 459 kts 24°
2026-05-05 20:56 40.67419 119.60353 34881 ft 461 kts 24°
2026-05-05 20:57 40.72646 119.65303 34892 ft 462 kts 25°
2026-05-05 20:57 40.77859 119.70249 34887 ft 463 kts 25°
2026-05-05 20:58 40.83037 119.75173 34894 ft 461 kts 25°
2026-05-05 20:58 40.88240 119.80125 34898 ft 462 kts 25°
2026-05-05 20:59 40.93446 119.85091 34876 ft 462 kts 25°
2026-05-05 20:59 40.98653 119.90075 34880 ft 464 kts 25°
2026-05-05 21:00 41.03883 119.95087 34882 ft 466 kts 25°
2026-05-05 21:00 41.09097 120.00092 34890 ft 466 kts 25°
2026-05-05 21:01 41.14308 120.05115 34883 ft 464 kts 25°
2026-05-05 21:01 41.19557 120.10170 34901 ft 469 kts 26°
2026-05-05 21:02 41.24804 120.15241 34893 ft 466 kts 26°
2026-05-05 21:02 41.30032 120.20303 34902 ft 468 kts 26°
2026-05-05 21:03 41.35318 120.25433 34922 ft 472 kts 26°
2026-05-05 21:03 41.37957 120.27995 34774 ft 473 kts 26°
2026-05-05 21:03 41.40585 120.30554 34513 ft 470 kts 26°
2026-05-05 21:04 41.43248 120.33147 34257 ft 469 kts 26°
2026-05-05 21:04 41.45859 120.35691 34002 ft 469 kts 27°
2026-05-05 21:04 41.48469 120.38240 33735 ft 467 kts 28°
2026-05-05 21:04 41.50931 120.41151 33465 ft 483 kts 41°
2026-05-05 21:05 41.52869 120.44911 33204 ft 500 kts 57°
2026-05-05 21:05 41.54050 120.49252 32951 ft 512 kts 73°
2026-05-05 21:05 41.54483 120.53964 32727 ft 517 kts 83°
2026-05-05 21:05 41.54689 120.58774 32465 ft 517 kts 84°
2026-05-05 21:06 41.54870 120.63535 32215 ft 517 kts 85°
2026-05-05 21:06 41.55059 120.68278 31951 ft 517 kts 85°
2026-05-05 21:06 41.55279 120.73074 31691 ft 517 kts 85°
2026-05-05 21:06 41.55509 120.77846 31421 ft 518 kts 84°
2026-05-05 21:07 41.55742 120.82619 31151 ft 516 kts 84°
2026-05-05 21:07 41.55986 120.87406 30900 ft 516 kts 85°
2026-05-05 21:07 41.56227 120.92119 30643 ft 516 kts 85°
2026-05-05 21:07 41.56470 120.96913 30385 ft 517 kts 85°
2026-05-05 21:08 41.56705 121.01679 30123 ft 516 kts 85°
2026-05-05 21:08 41.56937 121.06414 29864 ft 516 kts 85°
2026-05-05 21:08 41.57164 121.11201 29601 ft 515 kts 85°
2026-05-05 21:08 41.57394 121.15949 29354 ft 513 kts 86°
2026-05-05 21:09 41.57603 121.20628 29097 ft 510 kts 87°
2026-05-05 21:09 41.57754 121.25356 28842 ft 510 kts 87°
2026-05-05 21:09 41.57881 121.30083 28585 ft 508 kts 87°
2026-05-05 21:09 41.58005 121.34720 28328 ft 504 kts 88°
2026-05-05 21:10 41.58133 121.39371 28070 ft 501 kts 88°
2026-05-05 21:10 41.58258 121.44012 27818 ft 500 kts 88°
2026-05-05 21:10 41.58382 121.48638 27557 ft 498 kts 88°
2026-05-05 21:10 41.58501 121.53257 27302 ft 496 kts 88°
2026-05-05 21:11 41.58620 121.57826 27053 ft 493 kts 87°
2026-05-05 21:11 41.58741 121.62327 26796 ft 491 kts 88°
2026-05-05 21:11 41.58859 121.66865 26543 ft 488 kts 88°
2026-05-05 21:11 41.58972 121.71387 26285 ft 485 kts 89°
2026-05-05 21:12 41.59087 121.75878 26031 ft 484 kts 89°
2026-05-05 21:12 41.59197 121.80337 25771 ft 481 kts 89°
2026-05-05 21:12 41.59302 121.84785 25517 ft 478 kts 89°
2026-05-05 21:12 41.59405 121.89175 25264 ft 477 kts 89°
2026-05-05 21:13 41.59508 121.93557 25010 ft 474 kts 89°
2026-05-05 21:13 41.59607 121.97934 24753 ft 471 kts 89°
2026-05-05 21:13 41.59707 122.02316 24486 ft 468 kts 88°
2026-05-05 21:13 41.59785 122.06602 23977 ft 463 kts 90°
2026-05-05 21:14 41.59705 122.10857 23354 ft 459 kts 94°
2026-05-05 21:14 41.59430 122.15060 22746 ft 455 kts 98°
2026-05-05 21:14 41.58998 122.19201 22200 ft 449 kts 100°
2026-05-05 21:14 41.58537 122.23278 21656 ft 444 kts 100°
2026-05-05 21:15 41.58075 122.27312 21097 ft 440 kts 100°
2026-05-05 21:15 41.57614 122.31366 20497 ft 438 kts 100°
2026-05-05 21:15 41.57165 122.35330 19975 ft 433 kts 100°
2026-05-05 21:15 41.56725 122.39239 19462 ft 428 kts 100°
2026-05-05 21:16 41.56284 122.43145 18931 ft 424 kts 100°
2026-05-05 21:16 41.55849 122.47003 18435 ft 420 kts 100°
2026-05-05 21:16 41.55415 122.50842 17910 ft 416 kts 100°
2026-05-05 21:16 41.54985 122.54635 17384 ft 413 kts 100°
2026-05-05 21:17 41.54559 122.58380 16867 ft 410 kts 100°
2026-05-05 21:17 41.54131 122.62119 16380 ft 406 kts 100°
2026-05-05 21:17 41.53705 122.65844 15870 ft 403 kts 101°
2026-05-05 21:17 41.53286 122.69495 15349 ft 401 kts 101°
2026-05-05 21:18 41.52867 122.73118 14852 ft 398 kts 101°
2026-05-05 21:18 41.52447 122.76750 14379 ft 394 kts 101°
2026-05-05 21:18 41.52030 122.80341 13915 ft 390 kts 101°
2026-05-05 21:18 41.51620 122.83890 13415 ft 386 kts 102°
2026-05-05 21:19 41.51214 122.87397 12912 ft 383 kts 102°
2026-05-05 21:19 41.50808 122.90878 12643 ft 382 kts 102°
2026-05-05 21:19 41.50394 122.94372 12623 ft 383 kts 102°
2026-05-05 21:19 41.49977 122.97896 12617 ft 383 kts 102°
2026-05-05 21:20 41.49567 123.01375 12601 ft 384 kts 102°
2026-05-05 21:20 41.49146 123.04928 12609 ft 384 kts 102°
2026-05-05 21:20 41.48734 123.08395 12607 ft 383 kts 102°
2026-05-05 21:20 41.48311 123.11937 12613 ft 384 kts 102°
2026-05-05 21:21 41.47890 123.15426 12619 ft 384 kts 102°
2026-05-05 21:21 41.47465 123.18938 12603 ft 383 kts 102°
2026-05-05 21:21 41.47255 123.22433 12615 ft 382 kts 90°
2026-05-05 21:21 41.47596 123.25916 12443 ft 372 kts 78°
2026-05-05 21:22 41.48263 123.29171 12216 ft 357 kts 74°
2026-05-05 21:22 41.48968 123.32265 11836 ft 343 kts 74°
2026-05-05 21:22 41.49645 123.35268 11525 ft 336 kts 75°
2026-05-05 21:22 41.50292 123.38209 11195 ft 332 kts 74°
2026-05-05 21:23 41.51083 123.41098 10806 ft 332 kts 67°
2026-05-05 21:23 41.52093 123.43830 10406 ft 331 kts 62°
2026-05-05 21:23 41.53200 123.46526 9987 ft 331 kts 61°
2026-05-05 21:23 41.54322 123.49220 9595 ft 330 kts 61°
2026-05-05 21:24 41.55412 123.51864 9413 ft 321 kts 61°
2026-05-05 21:24 41.56460 123.54413 9240 ft 313 kts 60°
2026-05-05 21:24 41.57636 123.56825 9078 ft 304 kts 52°
2026-05-05 21:24 41.58960 123.58977 8922 ft 295 kts 46°
2026-05-05 21:25 41.60302 123.60995 8777 ft 287 kts 45°
2026-05-05 21:25 41.61621 123.62957 8625 ft 280 kts 45°
2026-05-05 21:25 41.62900 123.64870 8496 ft 273 kts 45°
2026-05-05 21:25 41.64138 123.66737 8298 ft 269 kts 46°
2026-05-05 21:26 41.65380 123.68610 8031 ft 267 kts 45°
2026-05-05 21:26 41.66601 123.70446 7767 ft 266 kts 45°
2026-05-05 21:26 41.67819 123.72278 7469 ft 265 kts 45°
2026-05-05 21:26 41.69012 123.74174 7193 ft 264 kts 48°
2026-05-05 21:27 41.70137 123.76095 6921 ft 263 kts 49°
2026-05-05 21:27 41.71027 123.77640 6697 ft 263 kts 49°
2026-05-05 21:27 41.72136 123.79589 6417 ft 262 kts 49°
2026-05-05 21:27 41.73228 123.81523 6140 ft 261 kts 49°
2026-05-05 21:28 41.74326 123.83453 5859 ft 260 kts 50°
2026-05-05 21:28 41.75442 123.85336 5594 ft 257 kts 42°
2026-05-05 21:28 41.76874 123.86536 5323 ft 238 kts
2026-05-05 21:28 41.78378 123.86307 5155 ft 203 kts 318°
2026-05-05 21:29 41.79267 123.85066 4958 ft 175 kts 288°
2026-05-05 21:29 41.79642 123.83607 4751 ft 159 kts 272°
2026-05-05 21:29 41.79665 123.82153 4356 ft 159 kts 260°
2026-05-05 21:29 41.79590 123.80940 4011 ft 164 kts 259°
2026-05-05 21:30 41.79543 123.80039 3800 ft 165 kts 260°
2026-05-05 21:30 41.79489 123.78712 3505 ft 166 kts 261°
2026-05-05 21:30 41.79446 123.77174 3178 ft 166 kts 261°
2026-05-05 21:30 41.79414 123.75620 2829 ft 167 kts 262°
2026-05-05 21:31 41.79388 123.74062 2444 ft 172 kts 262°
2026-05-05 21:31 41.79339 123.72440 2078 ft 173 kts 255°
2026-05-05 21:31 41.78893 123.70997 2035 ft 163 kts 231°
2026-05-05 21:31 41.78218 123.69894 2012 ft 149 kts 225°
2026-05-05 21:32 41.77535 123.68859 2008 ft 149 kts 224°
2026-05-05 21:32 41.76938 123.67943 2007 ft 149 kts 225°
2026-05-05 21:32 41.76529 123.67303 2007 ft 149 kts 226°
2026-05-05 21:32 41.75858 123.66258 2005 ft 148 kts 225°
2026-05-05 21:33 41.75182 123.65217 2004 ft 148 kts 225°
2026-05-05 21:33 41.74502 123.64182 2001 ft 148 kts 225°
2026-05-05 21:33 41.73818 123.63148 2001 ft 148 kts 225°
2026-05-05 21:33 41.73132 123.62114 2002 ft 148 kts 224°
2026-05-05 21:34 41.72448 123.61085 2003 ft 148 kts 224°
2026-05-05 21:34 41.71761 123.60050 1997 ft 144 kts 224°
2026-05-05 21:34 41.71153 123.59130 1955 ft 123 kts 224°
2026-05-05 21:34 41.70594 123.58287 1852 ft 120 kts 224°
2026-05-05 21:35 41.70034 123.57446 1691 ft 120 kts 224°
2026-05-05 21:35 41.69475 123.56606 1537 ft 121 kts 224°
2026-05-05 21:35 41.68919 123.55768 1379 ft 121 kts 224°
2026-05-05 21:35 41.68359 123.54923 1219 ft 122 kts 224°
2026-05-05 21:36 41.67784 123.54056 1054 ft 123 kts 224°
2026-05-05 21:36 41.67214 123.53195 888 ft 124 kts 224°
2026-05-05 21:36 41.66643 123.52333 719 ft 126 kts 224°
2026-05-05 21:36 41.66060 123.51463 558 ft 127 kts 225°
2026-05-05 21:37 41.65489 123.50562 379 ft 127 kts 226°
2026-05-05 21:37 41.64893 123.49674 225 ft 126 kts 224°
2026-05-05 21:37 41.64358 123.48923 207 ft 90 kts 231°
2026-05-05 21:37 41.64064 123.48452 207 ft 40 kts 231°
2026-05-05 21:38 41.63987 123.48334 207 ft 2 kts 229°
2026-05-05 21:38 41.63938 123.48263 207 ft 19 kts 228°
2026-05-05 21:38 41.63816 123.48095 207 ft 26 kts 225°
2026-05-05 21:38 41.63680 123.47952 207 ft 23 kts 205°
2026-05-05 21:39 41.63545 123.47892 207 ft 9 kts 197°
2026-05-05 21:39 41.63479 123.47862 207 ft 10 kts 208°
2026-05-05 21:39 41.63413 123.47806 207 ft 11 kts 216°
2026-05-05 21:39 41.63354 123.47764 207 ft 9 kts 187°
2026-05-05 21:40 41.63299 123.47809 207 ft 10 kts 135°
2026-05-05 21:40 41.63249 123.47872 207 ft 10 kts 139°
2026-05-05 21:40 41.63226 123.47957 207 ft 10 kts 82°
2026-05-05 21:40 41.63241 123.48058 207 ft 11 kts 78°
2026-05-05 21:41 41.63256 123.48155 207 ft 6 kts 79°
2026-05-05 21:41 41.63257 123.48161 207 ft 0 kts 79°